Index of /20260508/WXO-DD/model_rdps/10km/18/073
Name Last modified Size Description
Parent Directory -
20260508T18Z_MSC_RDPS_AbsoluteVorticity_IsbL-0250_RLatLon0.09_PT073H.grib2 2026-05-08 21:02 607K
20260508T18Z_MSC_RDPS_AbsoluteVorticity_IsbL-0500_RLatLon0.09_PT073H.grib2 2026-05-08 21:02 577K
20260508T18Z_MSC_RDPS_AbsoluteVorticity_IsbL-0700_RLatLon0.09_PT073H.grib2 2026-05-08 21:02 630K
20260508T18Z_MSC_RDPS_AbsoluteVorticity_IsbL-0850_RLatLon0.09_PT073H.grib2 2026-05-08 21:02 793K
20260508T18Z_MSC_RDPS_AirTemp_AGL-120m_RLatLon0.09_PT073H.grib2 2026-05-08 21:02 382K
20260508T18Z_MSC_RDPS_AirTemp_AGL-2m_RLatLon0.09_PT073H.grib2 2026-05-08 21:02 628K
20260508T18Z_MSC_RDPS_AirTemp_AGL-40m_RLatLon0.09_PT073H.grib2 2026-05-08 21:02 391K
20260508T18Z_MSC_RDPS_AirTemp_AGL-80m_RLatLon0.09_PT073H.grib2 2026-05-08 21:02 386K
20260508T18Z_MSC_RDPS_AirTemp_IsbL-0001_RLatLon0.09_PT073H.grib2 2026-05-08 21:02 251K
20260508T18Z_MSC_RDPS_AirTemp_IsbL-0005_RLatLon0.09_PT073H.grib2 2026-05-08 21:02 383K
20260508T18Z_MSC_RDPS_AirTemp_IsbL-0010_RLatLon0.09_PT073H.grib2 2026-05-08 21:02 394K
20260508T18Z_MSC_RDPS_AirTemp_IsbL-0020_RLatLon0.09_PT073H.grib2 2026-05-08 21:02 320K
20260508T18Z_MSC_RDPS_AirTemp_IsbL-0030_RLatLon0.09_PT073H.grib2 2026-05-08 21:02 343K
20260508T18Z_MSC_RDPS_AirTemp_IsbL-0050_RLatLon0.09_PT073H.grib2 2026-05-08 21:02 311K
20260508T18Z_MSC_RDPS_AirTemp_IsbL-0100_RLatLon0.09_PT073H.grib2 2026-05-08 21:02 424K
20260508T18Z_MSC_RDPS_AirTemp_IsbL-0150_RLatLon0.09_PT073H.grib2 2026-05-08 21:02 403K
20260508T18Z_MSC_RDPS_AirTemp_IsbL-0175_RLatLon0.09_PT073H.grib2 2026-05-08 21:02 396K
20260508T18Z_MSC_RDPS_AirTemp_IsbL-0200_RLatLon0.09_PT073H.grib2 2026-05-08 21:02 403K
20260508T18Z_MSC_RDPS_AirTemp_IsbL-0225_RLatLon0.09_PT073H.grib2 2026-05-08 21:02 412K
20260508T18Z_MSC_RDPS_AirTemp_IsbL-0250_RLatLon0.09_PT073H.grib2 2026-05-08 21:02 427K
20260508T18Z_MSC_RDPS_AirTemp_IsbL-0275_RLatLon0.09_PT073H.grib2 2026-05-08 21:02 407K
20260508T18Z_MSC_RDPS_AirTemp_IsbL-0300_RLatLon0.09_PT073H.grib2 2026-05-08 21:02 413K
20260508T18Z_MSC_RDPS_AirTemp_IsbL-0350_RLatLon0.09_PT073H.grib2 2026-05-08 21:02 422K
20260508T18Z_MSC_RDPS_AirTemp_IsbL-0400_RLatLon0.09_PT073H.grib2 2026-05-08 21:02 425K
20260508T18Z_MSC_RDPS_AirTemp_IsbL-0450_RLatLon0.09_PT073H.grib2 2026-05-08 21:02 435K
20260508T18Z_MSC_RDPS_AirTemp_IsbL-0500_RLatLon0.09_PT073H.grib2 2026-05-08 21:02 446K
20260508T18Z_MSC_RDPS_AirTemp_IsbL-0550_RLatLon0.09_PT073H.grib2 2026-05-08 21:02 467K
20260508T18Z_MSC_RDPS_AirTemp_IsbL-0600_RLatLon0.09_PT073H.grib2 2026-05-08 21:02 488K
20260508T18Z_MSC_RDPS_AirTemp_IsbL-0650_RLatLon0.09_PT073H.grib2 2026-05-08 21:02 506K
20260508T18Z_MSC_RDPS_AirTemp_IsbL-0700_RLatLon0.09_PT073H.grib2 2026-05-08 21:02 533K
20260508T18Z_MSC_RDPS_AirTemp_IsbL-0750_RLatLon0.09_PT073H.grib2 2026-05-08 21:02 538K
20260508T18Z_MSC_RDPS_AirTemp_IsbL-0800_RLatLon0.09_PT073H.grib2 2026-05-08 21:02 591K
20260508T18Z_MSC_RDPS_AirTemp_IsbL-0850_RLatLon0.09_PT073H.grib2 2026-05-08 21:02 638K
20260508T18Z_MSC_RDPS_AirTemp_IsbL-0875_RLatLon0.09_PT073H.grib2 2026-05-08 21:02 656K
20260508T18Z_MSC_RDPS_AirTemp_IsbL-0900_RLatLon0.09_PT073H.grib2 2026-05-08 21:02 534K
20260508T18Z_MSC_RDPS_AirTemp_IsbL-0925_RLatLon0.09_PT073H.grib2 2026-05-08 21:02 537K
20260508T18Z_MSC_RDPS_AirTemp_IsbL-0950_RLatLon0.09_PT073H.grib2 2026-05-08 21:02 542K
20260508T18Z_MSC_RDPS_AirTemp_IsbL-0970_RLatLon0.09_PT073H.grib2 2026-05-08 21:02 540K
20260508T18Z_MSC_RDPS_AirTemp_IsbL-0985_RLatLon0.09_PT073H.grib2 2026-05-08 21:02 530K
20260508T18Z_MSC_RDPS_AirTemp_IsbL-1000_RLatLon0.09_PT073H.grib2 2026-05-08 21:02 511K
20260508T18Z_MSC_RDPS_AirTemp_IsbL-1015_RLatLon0.09_PT073H.grib2 2026-05-08 21:02 511K
20260508T18Z_MSC_RDPS_Albedo_Sfc_RLatLon0.09_PT073H.grib2 2026-05-08 21:02 157K
20260508T18Z_MSC_RDPS_CAPE_Sfc_RLatLon0.09_PT073H.grib2 2026-05-08 21:02 1.8M
20260508T18Z_MSC_RDPS_CIN_Sfc_RLatLon0.09_PT073H.grib2 2026-05-08 21:02 1.3M
20260508T18Z_MSC_RDPS_CloudWater_EAtm_RLatLon0.09_PT073H.grib2 2026-05-08 21:02 231K
20260508T18Z_MSC_RDPS_ConvectivePrecip-Accum_Sfc_RLatLon0.09_PT073H.grib2 2026-05-08 21:02 1.3M
20260508T18Z_MSC_RDPS_DewPointDepression_AGL-2m_RLatLon0.09_PT073H.grib2 2026-05-08 21:02 419K
20260508T18Z_MSC_RDPS_DewPointDepression_IsbL-0001_RLatLon0.09_PT073H.grib2 2026-05-08 21:02 193
20260508T18Z_MSC_RDPS_DewPointDepression_IsbL-0005_RLatLon0.09_PT073H.grib2 2026-05-08 21:02 193
20260508T18Z_MSC_RDPS_DewPointDepression_IsbL-0010_RLatLon0.09_PT073H.grib2 2026-05-08 21:02 193
20260508T18Z_MSC_RDPS_DewPointDepression_IsbL-0020_RLatLon0.09_PT073H.grib2 2026-05-08 21:02 193
20260508T18Z_MSC_RDPS_DewPointDepression_IsbL-0030_RLatLon0.09_PT073H.grib2 2026-05-08 21:02 193
20260508T18Z_MSC_RDPS_DewPointDepression_IsbL-0050_RLatLon0.09_PT073H.grib2 2026-05-08 21:02 79K
20260508T18Z_MSC_RDPS_DewPointDepression_IsbL-0100_RLatLon0.09_PT073H.grib2 2026-05-08 21:02 113K
20260508T18Z_MSC_RDPS_DewPointDepression_IsbL-0150_RLatLon0.09_PT073H.grib2 2026-05-08 21:02 144K
20260508T18Z_MSC_RDPS_DewPointDepression_IsbL-0175_RLatLon0.09_PT073H.grib2 2026-05-08 21:02 165K
20260508T18Z_MSC_RDPS_DewPointDepression_IsbL-0200_RLatLon0.09_PT073H.grib2 2026-05-08 21:02 215K
20260508T18Z_MSC_RDPS_DewPointDepression_IsbL-0225_RLatLon0.09_PT073H.grib2 2026-05-08 21:02 259K
20260508T18Z_MSC_RDPS_DewPointDepression_IsbL-0250_RLatLon0.09_PT073H.grib2 2026-05-08 21:02 303K
20260508T18Z_MSC_RDPS_DewPointDepression_IsbL-0275_RLatLon0.09_PT073H.grib2 2026-05-08 21:02 311K
20260508T18Z_MSC_RDPS_DewPointDepression_IsbL-0300_RLatLon0.09_PT073H.grib2 2026-05-08 21:02 328K
20260508T18Z_MSC_RDPS_DewPointDepression_IsbL-0350_RLatLon0.09_PT073H.grib2 2026-05-08 21:02 336K
20260508T18Z_MSC_RDPS_DewPointDepression_IsbL-0400_RLatLon0.09_PT073H.grib2 2026-05-08 21:02 349K
20260508T18Z_MSC_RDPS_DewPointDepression_IsbL-0450_RLatLon0.09_PT073H.grib2 2026-05-08 21:02 359K
20260508T18Z_MSC_RDPS_DewPointDepression_IsbL-0500_RLatLon0.09_PT073H.grib2 2026-05-08 21:02 361K
20260508T18Z_MSC_RDPS_DewPointDepression_IsbL-0550_RLatLon0.09_PT073H.grib2 2026-05-08 21:02 374K
20260508T18Z_MSC_RDPS_DewPointDepression_IsbL-0600_RLatLon0.09_PT073H.grib2 2026-05-08 21:02 390K
20260508T18Z_MSC_RDPS_DewPointDepression_IsbL-0650_RLatLon0.09_PT073H.grib2 2026-05-08 21:02 397K
20260508T18Z_MSC_RDPS_DewPointDepression_IsbL-0700_RLatLon0.09_PT073H.grib2 2026-05-08 21:02 410K
20260508T18Z_MSC_RDPS_DewPointDepression_IsbL-0750_RLatLon0.09_PT073H.grib2 2026-05-08 21:02 432K
20260508T18Z_MSC_RDPS_DewPointDepression_IsbL-0800_RLatLon0.09_PT073H.grib2 2026-05-08 21:02 468K
20260508T18Z_MSC_RDPS_DewPointDepression_IsbL-0850_RLatLon0.09_PT073H.grib2 2026-05-08 21:02 477K
20260508T18Z_MSC_RDPS_DewPointDepression_IsbL-0875_RLatLon0.09_PT073H.grib2 2026-05-08 21:02 469K
20260508T18Z_MSC_RDPS_DewPointDepression_IsbL-0900_RLatLon0.09_PT073H.grib2 2026-05-08 21:02 457K
20260508T18Z_MSC_RDPS_DewPointDepression_IsbL-0925_RLatLon0.09_PT073H.grib2 2026-05-08 21:02 449K
20260508T18Z_MSC_RDPS_DewPointDepression_IsbL-0950_RLatLon0.09_PT073H.grib2 2026-05-08 21:02 447K
20260508T18Z_MSC_RDPS_DewPointDepression_IsbL-0970_RLatLon0.09_PT073H.grib2 2026-05-08 21:02 443K
20260508T18Z_MSC_RDPS_DewPointDepression_IsbL-0985_RLatLon0.09_PT073H.grib2 2026-05-08 21:02 437K
20260508T18Z_MSC_RDPS_DewPointDepression_IsbL-1000_RLatLon0.09_PT073H.grib2 2026-05-08 21:02 429K
20260508T18Z_MSC_RDPS_DewPointDepression_IsbL-1015_RLatLon0.09_PT073H.grib2 2026-05-08 21:02 418K
20260508T18Z_MSC_RDPS_DewPoint_AGL-2m_RLatLon0.09_PT073H.grib2 2026-05-08 21:02 399K
20260508T18Z_MSC_RDPS_DownwardLongwaveRadiationFlux-Accum_Sfc_RLatLon0.09_PT073H.grib2 2026-05-08 21:02 428K
20260508T18Z_MSC_RDPS_DownwardShortwaveRadiationFlux-Accum_NTAtm_RLatLon0.09_PT073H.grib2 2026-05-08 21:02 134K
20260508T18Z_MSC_RDPS_DownwardShortwaveRadiationFlux-Accum_Sfc_RLatLon0.09_PT073H.grib2 2026-05-08 21:02 637K
20260508T18Z_MSC_RDPS_FreezingRain-Accum1h_Sfc_RLatLon0.09_PT073H.grib2 2026-05-08 21:02 30K
20260508T18Z_MSC_RDPS_FreezingRain-Accum_Sfc_RLatLon0.09_PT073H.grib2 2026-05-08 21:02 202K
20260508T18Z_MSC_RDPS_GeopotentialHeight_IsbL-0001_RLatLon0.09_PT073H.grib2 2026-05-08 21:02 253K
20260508T18Z_MSC_RDPS_GeopotentialHeight_IsbL-0005_RLatLon0.09_PT073H.grib2 2026-05-08 21:02 344K
20260508T18Z_MSC_RDPS_GeopotentialHeight_IsbL-0010_RLatLon0.09_PT073H.grib2 2026-05-08 21:02 313K
20260508T18Z_MSC_RDPS_GeopotentialHeight_IsbL-0020_RLatLon0.09_PT073H.grib2 2026-05-08 21:02 313K
20260508T18Z_MSC_RDPS_GeopotentialHeight_IsbL-0030_RLatLon0.09_PT073H.grib2 2026-05-08 21:02 315K
20260508T18Z_MSC_RDPS_GeopotentialHeight_IsbL-0050_RLatLon0.09_PT073H.grib2 2026-05-08 21:02 313K
20260508T18Z_MSC_RDPS_GeopotentialHeight_IsbL-0100_RLatLon0.09_PT073H.grib2 2026-05-08 21:02 285K
20260508T18Z_MSC_RDPS_GeopotentialHeight_IsbL-0150_RLatLon0.09_PT073H.grib2 2026-05-08 21:02 228K
20260508T18Z_MSC_RDPS_GeopotentialHeight_IsbL-0175_RLatLon0.09_PT073H.grib2 2026-05-08 21:02 229K
20260508T18Z_MSC_RDPS_GeopotentialHeight_IsbL-0200_RLatLon0.09_PT073H.grib2 2026-05-08 21:02 232K
20260508T18Z_MSC_RDPS_GeopotentialHeight_IsbL-0225_RLatLon0.09_PT073H.grib2 2026-05-08 21:02 234K
20260508T18Z_MSC_RDPS_GeopotentialHeight_IsbL-0250_RLatLon0.09_PT073H.grib2 2026-05-08 21:02 236K
20260508T18Z_MSC_RDPS_GeopotentialHeight_IsbL-0275_RLatLon0.09_PT073H.grib2 2026-05-08 21:02 235K
20260508T18Z_MSC_RDPS_GeopotentialHeight_IsbL-0300_RLatLon0.09_PT073H.grib2 2026-05-08 21:02 235K
20260508T18Z_MSC_RDPS_GeopotentialHeight_IsbL-0350_RLatLon0.09_PT073H.grib2 2026-05-08 21:02 232K
20260508T18Z_MSC_RDPS_GeopotentialHeight_IsbL-0400_RLatLon0.09_PT073H.grib2 2026-05-08 21:02 301K
20260508T18Z_MSC_RDPS_GeopotentialHeight_IsbL-0450_RLatLon0.09_PT073H.grib2 2026-05-08 21:02 296K
20260508T18Z_MSC_RDPS_GeopotentialHeight_IsbL-0500_RLatLon0.09_PT073H.grib2 2026-05-08 21:02 290K
20260508T18Z_MSC_RDPS_GeopotentialHeight_IsbL-0550_RLatLon0.09_PT073H.grib2 2026-05-08 21:02 287K
20260508T18Z_MSC_RDPS_GeopotentialHeight_IsbL-0600_RLatLon0.09_PT073H.grib2 2026-05-08 21:02 283K
20260508T18Z_MSC_RDPS_GeopotentialHeight_IsbL-0650_RLatLon0.09_PT073H.grib2 2026-05-08 21:02 256K
20260508T18Z_MSC_RDPS_GeopotentialHeight_IsbL-0700_RLatLon0.09_PT073H.grib2 2026-05-08 21:02 256K
20260508T18Z_MSC_RDPS_GeopotentialHeight_IsbL-0750_RLatLon0.09_PT073H.grib2 2026-05-08 21:02 343K
20260508T18Z_MSC_RDPS_GeopotentialHeight_IsbL-0800_RLatLon0.09_PT073H.grib2 2026-05-08 21:02 352K
20260508T18Z_MSC_RDPS_GeopotentialHeight_IsbL-0850_RLatLon0.09_PT073H.grib2 2026-05-08 21:02 359K
20260508T18Z_MSC_RDPS_GeopotentialHeight_IsbL-0875_RLatLon0.09_PT073H.grib2 2026-05-08 21:02 361K
20260508T18Z_MSC_RDPS_GeopotentialHeight_IsbL-0900_RLatLon0.09_PT073H.grib2 2026-05-08 21:02 366K
20260508T18Z_MSC_RDPS_GeopotentialHeight_IsbL-0925_RLatLon0.09_PT073H.grib2 2026-05-08 21:02 369K
20260508T18Z_MSC_RDPS_GeopotentialHeight_IsbL-0950_RLatLon0.09_PT073H.grib2 2026-05-08 21:02 372K
20260508T18Z_MSC_RDPS_GeopotentialHeight_IsbL-0970_RLatLon0.09_PT073H.grib2 2026-05-08 21:02 380K
20260508T18Z_MSC_RDPS_GeopotentialHeight_IsbL-0985_RLatLon0.09_PT073H.grib2 2026-05-08 21:02 390K
20260508T18Z_MSC_RDPS_GeopotentialHeight_IsbL-1000_RLatLon0.09_PT073H.grib2 2026-05-08 21:02 403K
20260508T18Z_MSC_RDPS_GeopotentialHeight_IsbL-1015_RLatLon0.09_PT073H.grib2 2026-05-08 21:02 419K
20260508T18Z_MSC_RDPS_HighLowPressure_MSL_RLatLon0.09_PT073H.json 2026-05-08 20:54 25K
20260508T18Z_MSC_RDPS_Humidex_Sfc_RLatLon0.09_PT073H.grib2 2026-05-08 21:02 2.4M
20260508T18Z_MSC_RDPS_IcePellets-Accum1h_Sfc_RLatLon0.09_PT073H.grib2 2026-05-08 21:02 13K
20260508T18Z_MSC_RDPS_IcePellets-Accum_Sfc_RLatLon0.09_PT073H.grib2 2026-05-08 21:02 47K
20260508T18Z_MSC_RDPS_KIndex_Sfc_RLatLon0.09_PT073H.grib2 2026-05-08 21:02 2.5M
20260508T18Z_MSC_RDPS_LatentHeatNetFlux_Sfc_RLatLon0.09_PT073H.grib2 2026-05-08 21:02 321K
20260508T18Z_MSC_RDPS_LiftedIndex-MU-VT_IsbL-0500_RLatLon0.09_PT073H.grib2 2026-05-08 21:02 2.4M
20260508T18Z_MSC_RDPS_NetLongwaveRadiationFlux-Accum_Sfc_RLatLon0.09_PT073H.grib2 2026-05-08 21:02 477K
20260508T18Z_MSC_RDPS_NetShortwaveRadiationFlux-Accum_Sfc_RLatLon0.09_PT073H.grib2 2026-05-08 21:02 638K
20260508T18Z_MSC_RDPS_PlanetaryBoundaryLayerHeight_Sfc_RLatLon0.09_PT073H.grib2 2026-05-08 21:02 1.0M
20260508T18Z_MSC_RDPS_Precip-Accum1h_Sfc_RLatLon0.09_PT073H.grib2 2026-05-08 21:02 1.3M
20260508T18Z_MSC_RDPS_Precip-Accum_Sfc_RLatLon0.09_PT073H.grib2 2026-05-08 21:02 2.1M
20260508T18Z_MSC_RDPS_PrecipRate_Sfc_RLatLon0.09_PT073H.grib2 2026-05-08 21:02 192K
20260508T18Z_MSC_RDPS_PrecipType-Instant_Sfc_RLatLon0.09_PT073H.grib2 2026-05-08 21:02 636K
20260508T18Z_MSC_RDPS_Pressure-Trend3h_Sfc_RLatLon0.09_PT073H.grib2 2026-05-08 21:02 1.2M
20260508T18Z_MSC_RDPS_Pressure_MSL_RLatLon0.09_PT073H.grib2 2026-05-08 21:02 331K
20260508T18Z_MSC_RDPS_Pressure_PVU-1.5_RLatLon0.09_PT073H.grib2 2026-05-08 21:02 2.5M
20260508T18Z_MSC_RDPS_Pressure_PVU-1_RLatLon0.09_PT073H.grib2 2026-05-08 21:02 2.4M
20260508T18Z_MSC_RDPS_Pressure_PVU-2_RLatLon0.09_PT073H.grib2 2026-05-08 21:02 2.4M
20260508T18Z_MSC_RDPS_Pressure_Sfc_RLatLon0.09_PT073H.grib2 2026-05-08 21:02 499K
20260508T18Z_MSC_RDPS_RadiativeTemp_Sfc_RLatLon0.09_PT073H.grib2 2026-05-08 21:02 334K
20260508T18Z_MSC_RDPS_Rain-Accum1h_Sfc_RLatLon0.09_PT073H.grib2 2026-05-08 21:02 686K
20260508T18Z_MSC_RDPS_Rain-Accum_Sfc_RLatLon0.09_PT073H.grib2 2026-05-08 21:02 1.8M
20260508T18Z_MSC_RDPS_RelativeHumidity_AGL-2m_RLatLon0.09_PT073H.grib2 2026-05-08 21:02 1.0M
20260508T18Z_MSC_RDPS_RelativeHumidity_IsbL-0010_RLatLon0.09_PT073H.grib2 2026-05-08 21:02 562K
20260508T18Z_MSC_RDPS_RelativeHumidity_IsbL-0020_RLatLon0.09_PT073H.grib2 2026-05-08 21:02 623K
20260508T18Z_MSC_RDPS_RelativeHumidity_IsbL-0030_RLatLon0.09_PT073H.grib2 2026-05-08 21:02 622K
20260508T18Z_MSC_RDPS_RelativeHumidity_IsbL-0050_RLatLon0.09_PT073H.grib2 2026-05-08 21:02 354K
20260508T18Z_MSC_RDPS_RelativeHumidity_IsbL-0100_RLatLon0.09_PT073H.grib2 2026-05-08 21:02 276K
20260508T18Z_MSC_RDPS_RelativeHumidity_IsbL-0150_RLatLon0.09_PT073H.grib2 2026-05-08 21:02 412K
20260508T18Z_MSC_RDPS_RelativeHumidity_IsbL-0175_RLatLon0.09_PT073H.grib2 2026-05-08 21:02 466K
20260508T18Z_MSC_RDPS_RelativeHumidity_IsbL-0200_RLatLon0.09_PT073H.grib2 2026-05-08 21:02 535K
20260508T18Z_MSC_RDPS_RelativeHumidity_IsbL-0225_RLatLon0.09_PT073H.grib2 2026-05-08 21:02 612K
20260508T18Z_MSC_RDPS_RelativeHumidity_IsbL-0250_RLatLon0.09_PT073H.grib2 2026-05-08 21:02 695K
20260508T18Z_MSC_RDPS_RelativeHumidity_IsbL-0275_RLatLon0.09_PT073H.grib2 2026-05-08 21:02 727K
20260508T18Z_MSC_RDPS_RelativeHumidity_IsbL-0300_RLatLon0.09_PT073H.grib2 2026-05-08 21:02 769K
20260508T18Z_MSC_RDPS_RelativeHumidity_IsbL-0350_RLatLon0.09_PT073H.grib2 2026-05-08 21:02 785K
20260508T18Z_MSC_RDPS_RelativeHumidity_IsbL-0400_RLatLon0.09_PT073H.grib2 2026-05-08 21:02 805K
20260508T18Z_MSC_RDPS_RelativeHumidity_IsbL-0450_RLatLon0.09_PT073H.grib2 2026-05-08 21:02 819K
20260508T18Z_MSC_RDPS_RelativeHumidity_IsbL-0500_RLatLon0.09_PT073H.grib2 2026-05-08 21:02 832K
20260508T18Z_MSC_RDPS_RelativeHumidity_IsbL-0550_RLatLon0.09_PT073H.grib2 2026-05-08 21:02 841K
20260508T18Z_MSC_RDPS_RelativeHumidity_IsbL-0600_RLatLon0.09_PT073H.grib2 2026-05-08 21:02 866K
20260508T18Z_MSC_RDPS_RelativeHumidity_IsbL-0650_RLatLon0.09_PT073H.grib2 2026-05-08 21:02 880K
20260508T18Z_MSC_RDPS_RelativeHumidity_IsbL-0700_RLatLon0.09_PT073H.grib2 2026-05-08 21:02 913K
20260508T18Z_MSC_RDPS_RelativeHumidity_IsbL-0750_RLatLon0.09_PT073H.grib2 2026-05-08 21:02 957K
20260508T18Z_MSC_RDPS_RelativeHumidity_IsbL-0800_RLatLon0.09_PT073H.grib2 2026-05-08 21:02 1.0M
20260508T18Z_MSC_RDPS_RelativeHumidity_IsbL-0850_RLatLon0.09_PT073H.grib2 2026-05-08 21:02 1.0M
20260508T18Z_MSC_RDPS_RelativeHumidity_IsbL-0875_RLatLon0.09_PT073H.grib2 2026-05-08 21:02 1.1M
20260508T18Z_MSC_RDPS_RelativeHumidity_IsbL-0900_RLatLon0.09_PT073H.grib2 2026-05-08 21:02 1.1M
20260508T18Z_MSC_RDPS_RelativeHumidity_IsbL-0925_RLatLon0.09_PT073H.grib2 2026-05-08 21:02 1.1M
20260508T18Z_MSC_RDPS_RelativeHumidity_IsbL-0950_RLatLon0.09_PT073H.grib2 2026-05-08 21:02 1.1M
20260508T18Z_MSC_RDPS_RelativeHumidity_IsbL-0970_RLatLon0.09_PT073H.grib2 2026-05-08 21:02 1.1M
20260508T18Z_MSC_RDPS_RelativeHumidity_IsbL-0985_RLatLon0.09_PT073H.grib2 2026-05-08 21:02 1.0M
20260508T18Z_MSC_RDPS_RelativeHumidity_IsbL-1000_RLatLon0.09_PT073H.grib2 2026-05-08 21:02 1.0M
20260508T18Z_MSC_RDPS_RelativeHumidity_IsbL-1015_RLatLon0.09_PT073H.grib2 2026-05-08 21:02 1.0M
20260508T18Z_MSC_RDPS_Runoff-Accum_Sfc_RLatLon0.09_PT073H.grib2 2026-05-08 21:02 51K
20260508T18Z_MSC_RDPS_SWEATIndex_Sfc_RLatLon0.09_PT073H.grib2 2026-05-08 21:02 2.5M
20260508T18Z_MSC_RDPS_SeeingIndex_EAtm_RLatLon0.09_PT073H.grib2 2026-05-08 21:02 1.1M
20260508T18Z_MSC_RDPS_SensibleHeatNetFlux_Sfc_RLatLon0.09_PT073H.grib2 2026-05-08 21:02 284K
20260508T18Z_MSC_RDPS_ShowalterIndex_IsbL-0500_RLatLon0.09_PT073H.grib2 2026-05-08 21:02 2.6M
20260508T18Z_MSC_RDPS_SkyTransparencyIndex_EAtm_RLatLon0.09_PT073H.grib2 2026-05-08 21:02 705K
20260508T18Z_MSC_RDPS_Snow-Accum1h_Sfc_RLatLon0.09_PT073H.grib2 2026-05-08 21:02 474K
20260508T18Z_MSC_RDPS_Snow-Accum_Sfc_RLatLon0.09_PT073H.grib2 2026-05-08 21:02 679K
20260508T18Z_MSC_RDPS_SnowDensity_Sfc_RLatLon0.09_PT073H.grib2 2026-05-08 21:02 170K
20260508T18Z_MSC_RDPS_SnowDepth_Sfc_RLatLon0.09_PT073H.grib2 2026-05-08 21:02 615K
20260508T18Z_MSC_RDPS_SoilTemp_DBS-0to10cm_RLatLon0.09_PT073H.grib2 2026-05-08 21:02 245K
20260508T18Z_MSC_RDPS_SoilTemp_Sfc_RLatLon0.09_PT073H.grib2 2026-05-08 21:02 295K
20260508T18Z_MSC_RDPS_SoilVolumetricIceContent_Sfc_RLatLon0.09_PT073H.grib2 2026-05-08 21:02 140K
20260508T18Z_MSC_RDPS_SoilVolumetricWaterContent_DBS-0to10cm_RLatLon0.09_PT073H.grib2 2026-05-08 21:02 295K
20260508T18Z_MSC_RDPS_SoilVolumetricWaterContent_DBS-0to1cm_RLatLon0.09_PT073H.grib2 2026-05-08 21:02 346K
20260508T18Z_MSC_RDPS_SpecificHumidity_AGL-120m_RLatLon0.09_PT073H.grib2 2026-05-08 21:02 512K
20260508T18Z_MSC_RDPS_SpecificHumidity_AGL-2m_RLatLon0.09_PT073H.grib2 2026-05-08 21:02 686K
20260508T18Z_MSC_RDPS_SpecificHumidity_AGL-40m_RLatLon0.09_PT073H.grib2 2026-05-08 21:02 516K
20260508T18Z_MSC_RDPS_SpecificHumidity_AGL-80m_RLatLon0.09_PT073H.grib2 2026-05-08 21:02 513K
20260508T18Z_MSC_RDPS_SpecificHumidity_IsbL-0001_RLatLon0.09_PT073H.grib2 2026-05-08 21:02 366K
20260508T18Z_MSC_RDPS_SpecificHumidity_IsbL-0005_RLatLon0.09_PT073H.grib2 2026-05-08 21:02 359K
20260508T18Z_MSC_RDPS_SpecificHumidity_IsbL-0010_RLatLon0.09_PT073H.grib2 2026-05-08 21:02 387K
20260508T18Z_MSC_RDPS_SpecificHumidity_IsbL-0020_RLatLon0.09_PT073H.grib2 2026-05-08 21:02 482K
20260508T18Z_MSC_RDPS_SpecificHumidity_IsbL-0030_RLatLon0.09_PT073H.grib2 2026-05-08 21:02 363K
20260508T18Z_MSC_RDPS_SpecificHumidity_IsbL-0050_RLatLon0.09_PT073H.grib2 2026-05-08 21:02 471K
20260508T18Z_MSC_RDPS_SpecificHumidity_IsbL-0100_RLatLon0.09_PT073H.grib2 2026-05-08 21:02 399K
20260508T18Z_MSC_RDPS_SpecificHumidity_IsbL-0150_RLatLon0.09_PT073H.grib2 2026-05-08 21:02 455K
20260508T18Z_MSC_RDPS_SpecificHumidity_IsbL-0175_RLatLon0.09_PT073H.grib2 2026-05-08 21:02 432K
20260508T18Z_MSC_RDPS_SpecificHumidity_IsbL-0200_RLatLon0.09_PT073H.grib2 2026-05-08 21:02 465K
20260508T18Z_MSC_RDPS_SpecificHumidity_IsbL-0225_RLatLon0.09_PT073H.grib2 2026-05-08 21:02 458K
20260508T18Z_MSC_RDPS_SpecificHumidity_IsbL-0250_RLatLon0.09_PT073H.grib2 2026-05-08 21:02 570K
20260508T18Z_MSC_RDPS_SpecificHumidity_IsbL-0275_RLatLon0.09_PT073H.grib2 2026-05-08 21:02 489K
20260508T18Z_MSC_RDPS_SpecificHumidity_IsbL-0300_RLatLon0.09_PT073H.grib2 2026-05-08 21:02 588K
20260508T18Z_MSC_RDPS_SpecificHumidity_IsbL-0350_RLatLon0.09_PT073H.grib2 2026-05-08 21:02 581K
20260508T18Z_MSC_RDPS_SpecificHumidity_IsbL-0400_RLatLon0.09_PT073H.grib2 2026-05-08 21:02 542K
20260508T18Z_MSC_RDPS_SpecificHumidity_IsbL-0450_RLatLon0.09_PT073H.grib2 2026-05-08 21:02 600K
20260508T18Z_MSC_RDPS_SpecificHumidity_IsbL-0500_RLatLon0.09_PT073H.grib2 2026-05-08 21:02 535K
20260508T18Z_MSC_RDPS_SpecificHumidity_IsbL-0550_RLatLon0.09_PT073H.grib2 2026-05-08 21:02 612K
20260508T18Z_MSC_RDPS_SpecificHumidity_IsbL-0600_RLatLon0.09_PT073H.grib2 2026-05-08 21:02 669K
20260508T18Z_MSC_RDPS_SpecificHumidity_IsbL-0650_RLatLon0.09_PT073H.grib2 2026-05-08 21:02 587K
20260508T18Z_MSC_RDPS_SpecificHumidity_IsbL-0700_RLatLon0.09_PT073H.grib2 2026-05-08 21:02 635K
20260508T18Z_MSC_RDPS_SpecificHumidity_IsbL-0750_RLatLon0.09_PT073H.grib2 2026-05-08 21:02 695K
20260508T18Z_MSC_RDPS_SpecificHumidity_IsbL-0800_RLatLon0.09_PT073H.grib2 2026-05-08 21:02 783K
20260508T18Z_MSC_RDPS_SpecificHumidity_IsbL-0850_RLatLon0.09_PT073H.grib2 2026-05-08 21:02 837K
20260508T18Z_MSC_RDPS_SpecificHumidity_IsbL-0875_RLatLon0.09_PT073H.grib2 2026-05-08 21:02 851K
20260508T18Z_MSC_RDPS_SpecificHumidity_IsbL-0900_RLatLon0.09_PT073H.grib2 2026-05-08 21:02 720K
20260508T18Z_MSC_RDPS_SpecificHumidity_IsbL-0925_RLatLon0.09_PT073H.grib2 2026-05-08 21:02 726K
20260508T18Z_MSC_RDPS_SpecificHumidity_IsbL-0950_RLatLon0.09_PT073H.grib2 2026-05-08 21:02 732K
20260508T18Z_MSC_RDPS_SpecificHumidity_IsbL-0970_RLatLon0.09_PT073H.grib2 2026-05-08 21:02 729K
20260508T18Z_MSC_RDPS_SpecificHumidity_IsbL-0985_RLatLon0.09_PT073H.grib2 2026-05-08 21:02 721K
20260508T18Z_MSC_RDPS_SpecificHumidity_IsbL-1000_RLatLon0.09_PT073H.grib2 2026-05-08 21:02 711K
20260508T18Z_MSC_RDPS_SpecificHumidity_IsbL-1015_RLatLon0.09_PT073H.grib2 2026-05-08 21:02 700K
20260508T18Z_MSC_RDPS_SpecificHumidity_Sfc_RLatLon0.09_PT073H.grib2 2026-05-08 21:02 320K
20260508T18Z_MSC_RDPS_StormRelativeHelicity_EtaL-10000_RLatLon0.09_PT073H.grib2 2026-05-08 21:02 1.1M
20260508T18Z_MSC_RDPS_StormSeverityIndex_EtaL-10000_RLatLon0.09_PT073H.grib2 2026-05-08 21:02 1.2M
20260508T18Z_MSC_RDPS_Thickness_IsbL-0850to0700_RLatLon0.09_PT073H.grib2 2026-05-08 21:02 251K
20260508T18Z_MSC_RDPS_Thickness_IsbL-1000to0500_RLatLon0.09_PT073H.grib2 2026-05-08 21:02 199K
20260508T18Z_MSC_RDPS_Thickness_IsbL-1000to0850_RLatLon0.09_PT073H.grib2 2026-05-08 21:02 266K
20260508T18Z_MSC_RDPS_TotalCloudCover_Sfc_RLatLon0.09_PT073H.grib2 2026-05-08 21:02 669K
20260508T18Z_MSC_RDPS_TotalTotalsIndex_Sfc_RLatLon0.09_PT073H.grib2 2026-05-08 21:02 2.4M
20260508T18Z_MSC_RDPS_UVIndex-ClearSky_Sfc_RLatLon0.09_PT073H.grib2 2026-05-08 21:02 233K
20260508T18Z_MSC_RDPS_UVIndex_Sfc_RLatLon0.09_PT073H.grib2 2026-05-08 21:02 561K
20260508T18Z_MSC_RDPS_UpwardLongwaveRadiationFlux_NTAtm_RLatLon0.09_PT073H.grib2 2026-05-08 21:02 387K
20260508T18Z_MSC_RDPS_UpwardShortwaveRadiationFlux_NTAtm_RLatLon0.09_PT073H.grib2 2026-05-08 21:02 583K
20260508T18Z_MSC_RDPS_VerticalVelocity_IsbL-0250_RLatLon0.09_PT073H.grib2 2026-05-08 21:02 571K
20260508T18Z_MSC_RDPS_VerticalVelocity_IsbL-0500_RLatLon0.09_PT073H.grib2 2026-05-08 21:02 539K
20260508T18Z_MSC_RDPS_VerticalVelocity_IsbL-0700_RLatLon0.09_PT073H.grib2 2026-05-08 21:02 602K
20260508T18Z_MSC_RDPS_VerticalVelocity_IsbL-0850_RLatLon0.09_PT073H.grib2 2026-05-08 21:02 669K
20260508T18Z_MSC_RDPS_VerticalWindShear_EtaL-6500_RLatLon0.09_PT073H.grib2 2026-05-08 21:02 1.2M
20260508T18Z_MSC_RDPS_WindChill_Sfc_RLatLon0.09_PT073H.grib2 2026-05-08 21:02 1.2M
20260508T18Z_MSC_RDPS_WindDir_AGL-10m_RLatLon0.09_PT073H.grib2 2026-05-08 21:02 1.0M
20260508T18Z_MSC_RDPS_WindDir_AGL-120m_RLatLon0.09_PT073H.grib2 2026-05-08 21:02 622K
20260508T18Z_MSC_RDPS_WindDir_AGL-40m_RLatLon0.09_PT073H.grib2 2026-05-08 21:02 641K
20260508T18Z_MSC_RDPS_WindDir_AGL-80m_RLatLon0.09_PT073H.grib2 2026-05-08 21:02 630K
20260508T18Z_MSC_RDPS_WindDir_IsbL-0001_RLatLon0.09_PT073H.grib2 2026-05-08 21:02 270K
20260508T18Z_MSC_RDPS_WindDir_IsbL-0005_RLatLon0.09_PT073H.grib2 2026-05-08 21:02 370K
20260508T18Z_MSC_RDPS_WindDir_IsbL-0010_RLatLon0.09_PT073H.grib2 2026-05-08 21:02 386K
20260508T18Z_MSC_RDPS_WindDir_IsbL-0020_RLatLon0.09_PT073H.grib2 2026-05-08 21:02 435K
20260508T18Z_MSC_RDPS_WindDir_IsbL-0030_RLatLon0.09_PT073H.grib2 2026-05-08 21:02 429K
20260508T18Z_MSC_RDPS_WindDir_IsbL-0050_RLatLon0.09_PT073H.grib2 2026-05-08 21:02 445K
20260508T18Z_MSC_RDPS_WindDir_IsbL-0100_RLatLon0.09_PT073H.grib2 2026-05-08 21:02 424K
20260508T18Z_MSC_RDPS_WindDir_IsbL-0150_RLatLon0.09_PT073H.grib2 2026-05-08 21:02 421K
20260508T18Z_MSC_RDPS_WindDir_IsbL-0175_RLatLon0.09_PT073H.grib2 2026-05-08 21:02 443K
20260508T18Z_MSC_RDPS_WindDir_IsbL-0200_RLatLon0.09_PT073H.grib2 2026-05-08 21:02 457K
20260508T18Z_MSC_RDPS_WindDir_IsbL-0225_RLatLon0.09_PT073H.grib2 2026-05-08 21:02 460K
20260508T18Z_MSC_RDPS_WindDir_IsbL-0250_RLatLon0.09_PT073H.grib2 2026-05-08 21:02 457K
20260508T18Z_MSC_RDPS_WindDir_IsbL-0275_RLatLon0.09_PT073H.grib2 2026-05-08 21:02 486K
20260508T18Z_MSC_RDPS_WindDir_IsbL-0300_RLatLon0.09_PT073H.grib2 2026-05-08 21:02 486K
20260508T18Z_MSC_RDPS_WindDir_IsbL-0350_RLatLon0.09_PT073H.grib2 2026-05-08 21:02 507K
20260508T18Z_MSC_RDPS_WindDir_IsbL-0400_RLatLon0.09_PT073H.grib2 2026-05-08 21:02 528K
20260508T18Z_MSC_RDPS_WindDir_IsbL-0450_RLatLon0.09_PT073H.grib2 2026-05-08 21:02 551K
20260508T18Z_MSC_RDPS_WindDir_IsbL-0500_RLatLon0.09_PT073H.grib2 2026-05-08 21:02 576K
20260508T18Z_MSC_RDPS_WindDir_IsbL-0550_RLatLon0.09_PT073H.grib2 2026-05-08 21:02 587K
20260508T18Z_MSC_RDPS_WindDir_IsbL-0600_RLatLon0.09_PT073H.grib2 2026-05-08 21:02 603K
20260508T18Z_MSC_RDPS_WindDir_IsbL-0650_RLatLon0.09_PT073H.grib2 2026-05-08 21:02 636K
20260508T18Z_MSC_RDPS_WindDir_IsbL-0700_RLatLon0.09_PT073H.grib2 2026-05-08 21:02 678K
20260508T18Z_MSC_RDPS_WindDir_IsbL-0750_RLatLon0.09_PT073H.grib2 2026-05-08 21:02 723K
20260508T18Z_MSC_RDPS_WindDir_IsbL-0800_RLatLon0.09_PT073H.grib2 2026-05-08 21:02 794K
20260508T18Z_MSC_RDPS_WindDir_IsbL-0850_RLatLon0.09_PT073H.grib2 2026-05-08 21:02 864K
20260508T18Z_MSC_RDPS_WindDir_IsbL-0875_RLatLon0.09_PT073H.grib2 2026-05-08 21:02 885K
20260508T18Z_MSC_RDPS_WindDir_IsbL-0900_RLatLon0.09_PT073H.grib2 2026-05-08 21:02 902K
20260508T18Z_MSC_RDPS_WindDir_IsbL-0925_RLatLon0.09_PT073H.grib2 2026-05-08 21:02 919K
20260508T18Z_MSC_RDPS_WindDir_IsbL-0950_RLatLon0.09_PT073H.grib2 2026-05-08 21:02 925K
20260508T18Z_MSC_RDPS_WindDir_IsbL-0970_RLatLon0.09_PT073H.grib2 2026-05-08 21:02 928K
20260508T18Z_MSC_RDPS_WindDir_IsbL-0985_RLatLon0.09_PT073H.grib2 2026-05-08 21:02 937K
20260508T18Z_MSC_RDPS_WindDir_IsbL-1000_RLatLon0.09_PT073H.grib2 2026-05-08 21:02 953K
20260508T18Z_MSC_RDPS_WindDir_IsbL-1015_RLatLon0.09_PT073H.grib2 2026-05-08 21:02 970K
20260508T18Z_MSC_RDPS_WindGust-Max_AGL-10m_RLatLon0.09_PT073H.grib2 2026-05-08 21:02 951K
20260508T18Z_MSC_RDPS_WindGust-Min_AGL-10m_RLatLon0.09_PT073H.grib2 2026-05-08 21:02 1.0M
20260508T18Z_MSC_RDPS_WindGust_AGL-10m_RLatLon0.09_PT073H.grib2 2026-05-08 21:02 1.0M
20260508T18Z_MSC_RDPS_WindSpeed_AGL-10m_RLatLon0.09_PT073H.grib2 2026-05-08 21:02 851K
20260508T18Z_MSC_RDPS_WindSpeed_AGL-120m_RLatLon0.09_PT073H.grib2 2026-05-08 21:02 553K
20260508T18Z_MSC_RDPS_WindSpeed_AGL-40m_RLatLon0.09_PT073H.grib2 2026-05-08 21:02 547K
20260508T18Z_MSC_RDPS_WindSpeed_AGL-80m_RLatLon0.09_PT073H.grib2 2026-05-08 21:02 555K
20260508T18Z_MSC_RDPS_WindSpeed_IsbL-0001_RLatLon0.09_PT073H.grib2 2026-05-08 21:02 255K
20260508T18Z_MSC_RDPS_WindSpeed_IsbL-0005_RLatLon0.09_PT073H.grib2 2026-05-08 21:02 345K
20260508T18Z_MSC_RDPS_WindSpeed_IsbL-0010_RLatLon0.09_PT073H.grib2 2026-05-08 21:02 365K
20260508T18Z_MSC_RDPS_WindSpeed_IsbL-0020_RLatLon0.09_PT073H.grib2 2026-05-08 21:02 328K
20260508T18Z_MSC_RDPS_WindSpeed_IsbL-0030_RLatLon0.09_PT073H.grib2 2026-05-08 21:02 323K
20260508T18Z_MSC_RDPS_WindSpeed_IsbL-0050_RLatLon0.09_PT073H.grib2 2026-05-08 21:02 447K
20260508T18Z_MSC_RDPS_WindSpeed_IsbL-0100_RLatLon0.09_PT073H.grib2 2026-05-08 21:02 469K
20260508T18Z_MSC_RDPS_WindSpeed_IsbL-0150_RLatLon0.09_PT073H.grib2 2026-05-08 21:02 368K
20260508T18Z_MSC_RDPS_WindSpeed_IsbL-0175_RLatLon0.09_PT073H.grib2 2026-05-08 21:02 417K
20260508T18Z_MSC_RDPS_WindSpeed_IsbL-0200_RLatLon0.09_PT073H.grib2 2026-05-08 21:02 433K
20260508T18Z_MSC_RDPS_WindSpeed_IsbL-0225_RLatLon0.09_PT073H.grib2 2026-05-08 21:02 442K
20260508T18Z_MSC_RDPS_WindSpeed_IsbL-0250_RLatLon0.09_PT073H.grib2 2026-05-08 21:02 449K
20260508T18Z_MSC_RDPS_WindSpeed_IsbL-0275_RLatLon0.09_PT073H.grib2 2026-05-08 21:02 470K
20260508T18Z_MSC_RDPS_WindSpeed_IsbL-0300_RLatLon0.09_PT073H.grib2 2026-05-08 21:02 470K
20260508T18Z_MSC_RDPS_WindSpeed_IsbL-0350_RLatLon0.09_PT073H.grib2 2026-05-08 21:02 478K
20260508T18Z_MSC_RDPS_WindSpeed_IsbL-0400_RLatLon0.09_PT073H.grib2 2026-05-08 21:02 463K
20260508T18Z_MSC_RDPS_WindSpeed_IsbL-0450_RLatLon0.09_PT073H.grib2 2026-05-08 21:02 466K
20260508T18Z_MSC_RDPS_WindSpeed_IsbL-0500_RLatLon0.09_PT073H.grib2 2026-05-08 21:02 469K
20260508T18Z_MSC_RDPS_WindSpeed_IsbL-0550_RLatLon0.09_PT073H.grib2 2026-05-08 21:02 470K
20260508T18Z_MSC_RDPS_WindSpeed_IsbL-0600_RLatLon0.09_PT073H.grib2 2026-05-08 21:02 598K
20260508T18Z_MSC_RDPS_WindSpeed_IsbL-0650_RLatLon0.09_PT073H.grib2 2026-05-08 21:02 663K
20260508T18Z_MSC_RDPS_WindSpeed_IsbL-0700_RLatLon0.09_PT073H.grib2 2026-05-08 21:02 687K
20260508T18Z_MSC_RDPS_WindSpeed_IsbL-0750_RLatLon0.09_PT073H.grib2 2026-05-08 21:02 719K
20260508T18Z_MSC_RDPS_WindSpeed_IsbL-0800_RLatLon0.09_PT073H.grib2 2026-05-08 21:02 726K
20260508T18Z_MSC_RDPS_WindSpeed_IsbL-0850_RLatLon0.09_PT073H.grib2 2026-05-08 21:02 823K
20260508T18Z_MSC_RDPS_WindSpeed_IsbL-0875_RLatLon0.09_PT073H.grib2 2026-05-08 21:02 841K
20260508T18Z_MSC_RDPS_WindSpeed_IsbL-0900_RLatLon0.09_PT073H.grib2 2026-05-08 21:02 855K
20260508T18Z_MSC_RDPS_WindSpeed_IsbL-0925_RLatLon0.09_PT073H.grib2 2026-05-08 21:02 868K
20260508T18Z_MSC_RDPS_WindSpeed_IsbL-0950_RLatLon0.09_PT073H.grib2 2026-05-08 21:02 870K
20260508T18Z_MSC_RDPS_WindSpeed_IsbL-0970_RLatLon0.09_PT073H.grib2 2026-05-08 21:02 869K
20260508T18Z_MSC_RDPS_WindSpeed_IsbL-0985_RLatLon0.09_PT073H.grib2 2026-05-08 21:02 863K
20260508T18Z_MSC_RDPS_WindSpeed_IsbL-1000_RLatLon0.09_PT073H.grib2 2026-05-08 21:02 858K
20260508T18Z_MSC_RDPS_WindSpeed_IsbL-1015_RLatLon0.09_PT073H.grib2 2026-05-08 21:02 852K
20260508T18Z_MSC_RDPS_WindU_AGL-10m_RLatLon0.09_PT073H.grib2 2026-05-08 21:02 440K
20260508T18Z_MSC_RDPS_WindU_AGL-120m_RLatLon0.09_PT073H.grib2 2026-05-08 21:02 423K
20260508T18Z_MSC_RDPS_WindU_AGL-40m_RLatLon0.09_PT073H.grib2 2026-05-08 21:02 544K
20260508T18Z_MSC_RDPS_WindU_AGL-80m_RLatLon0.09_PT073H.grib2 2026-05-08 21:02 424K
20260508T18Z_MSC_RDPS_WindU_IsbL-0001_RLatLon0.09_PT073H.grib2 2026-05-08 21:02 294K
20260508T18Z_MSC_RDPS_WindU_IsbL-0005_RLatLon0.09_PT073H.grib2 2026-05-08 21:02 287K
20260508T18Z_MSC_RDPS_WindU_IsbL-0010_RLatLon0.09_PT073H.grib2 2026-05-08 21:02 299K
20260508T18Z_MSC_RDPS_WindU_IsbL-0020_RLatLon0.09_PT073H.grib2 2026-05-08 21:02 356K
20260508T18Z_MSC_RDPS_WindU_IsbL-0030_RLatLon0.09_PT073H.grib2 2026-05-08 21:02 353K
20260508T18Z_MSC_RDPS_WindU_IsbL-0050_RLatLon0.09_PT073H.grib2 2026-05-08 21:02 338K
20260508T18Z_MSC_RDPS_WindU_IsbL-0100_RLatLon0.09_PT073H.grib2 2026-05-08 21:02 426K
20260508T18Z_MSC_RDPS_WindU_IsbL-0150_RLatLon0.09_PT073H.grib2 2026-05-08 21:02 386K
20260508T18Z_MSC_RDPS_WindU_IsbL-0175_RLatLon0.09_PT073H.grib2 2026-05-08 21:02 410K
20260508T18Z_MSC_RDPS_WindU_IsbL-0200_RLatLon0.09_PT073H.grib2 2026-05-08 21:02 426K
20260508T18Z_MSC_RDPS_WindU_IsbL-0225_RLatLon0.09_PT073H.grib2 2026-05-08 21:02 435K
20260508T18Z_MSC_RDPS_WindU_IsbL-0250_RLatLon0.09_PT073H.grib2 2026-05-08 21:02 439K
20260508T18Z_MSC_RDPS_WindU_IsbL-0275_RLatLon0.09_PT073H.grib2 2026-05-08 21:02 358K
20260508T18Z_MSC_RDPS_WindU_IsbL-0300_RLatLon0.09_PT073H.grib2 2026-05-08 21:02 355K
20260508T18Z_MSC_RDPS_WindU_IsbL-0350_RLatLon0.09_PT073H.grib2 2026-05-08 21:02 362K
20260508T18Z_MSC_RDPS_WindU_IsbL-0400_RLatLon0.09_PT073H.grib2 2026-05-08 21:02 467K
20260508T18Z_MSC_RDPS_WindU_IsbL-0450_RLatLon0.09_PT073H.grib2 2026-05-08 21:02 470K
20260508T18Z_MSC_RDPS_WindU_IsbL-0500_RLatLon0.09_PT073H.grib2 2026-05-08 21:02 473K
20260508T18Z_MSC_RDPS_WindU_IsbL-0550_RLatLon0.09_PT073H.grib2 2026-05-08 21:02 458K
20260508T18Z_MSC_RDPS_WindU_IsbL-0600_RLatLon0.09_PT073H.grib2 2026-05-08 21:02 468K
20260508T18Z_MSC_RDPS_WindU_IsbL-0650_RLatLon0.09_PT073H.grib2 2026-05-08 21:02 488K
20260508T18Z_MSC_RDPS_WindU_IsbL-0700_RLatLon0.09_PT073H.grib2 2026-05-08 21:02 511K
20260508T18Z_MSC_RDPS_WindU_IsbL-0750_RLatLon0.09_PT073H.grib2 2026-05-08 21:02 540K
20260508T18Z_MSC_RDPS_WindU_IsbL-0800_RLatLon0.09_PT073H.grib2 2026-05-08 21:02 585K
20260508T18Z_MSC_RDPS_WindU_IsbL-0850_RLatLon0.09_PT073H.grib2 2026-05-08 21:02 631K
20260508T18Z_MSC_RDPS_WindU_IsbL-0875_RLatLon0.09_PT073H.grib2 2026-05-08 21:02 647K
20260508T18Z_MSC_RDPS_WindU_IsbL-0900_RLatLon0.09_PT073H.grib2 2026-05-08 21:02 658K
20260508T18Z_MSC_RDPS_WindU_IsbL-0925_RLatLon0.09_PT073H.grib2 2026-05-08 21:02 666K
20260508T18Z_MSC_RDPS_WindU_IsbL-0950_RLatLon0.09_PT073H.grib2 2026-05-08 21:02 665K
20260508T18Z_MSC_RDPS_WindU_IsbL-0970_RLatLon0.09_PT073H.grib2 2026-05-08 21:02 662K
20260508T18Z_MSC_RDPS_WindU_IsbL-0985_RLatLon0.09_PT073H.grib2 2026-05-08 21:02 658K
20260508T18Z_MSC_RDPS_WindU_IsbL-1000_RLatLon0.09_PT073H.grib2 2026-05-08 21:02 795K
20260508T18Z_MSC_RDPS_WindU_IsbL-1015_RLatLon0.09_PT073H.grib2 2026-05-08 21:02 792K
20260508T18Z_MSC_RDPS_WindV_AGL-10m_RLatLon0.09_PT073H.grib2 2026-05-08 21:02 438K
20260508T18Z_MSC_RDPS_WindV_AGL-120m_RLatLon0.09_PT073H.grib2 2026-05-08 21:02 538K
20260508T18Z_MSC_RDPS_WindV_AGL-40m_RLatLon0.09_PT073H.grib2 2026-05-08 21:02 540K
20260508T18Z_MSC_RDPS_WindV_AGL-80m_RLatLon0.09_PT073H.grib2 2026-05-08 21:02 539K
20260508T18Z_MSC_RDPS_WindV_IsbL-0001_RLatLon0.09_PT073H.grib2 2026-05-08 21:02 295K
20260508T18Z_MSC_RDPS_WindV_IsbL-0005_RLatLon0.09_PT073H.grib2 2026-05-08 21:02 287K
20260508T18Z_MSC_RDPS_WindV_IsbL-0010_RLatLon0.09_PT073H.grib2 2026-05-08 21:02 302K
20260508T18Z_MSC_RDPS_WindV_IsbL-0020_RLatLon0.09_PT073H.grib2 2026-05-08 21:02 320K
20260508T18Z_MSC_RDPS_WindV_IsbL-0030_RLatLon0.09_PT073H.grib2 2026-05-08 21:02 316K
20260508T18Z_MSC_RDPS_WindV_IsbL-0050_RLatLon0.09_PT073H.grib2 2026-05-08 21:02 338K
20260508T18Z_MSC_RDPS_WindV_IsbL-0100_RLatLon0.09_PT073H.grib2 2026-05-08 21:02 420K
20260508T18Z_MSC_RDPS_WindV_IsbL-0150_RLatLon0.09_PT073H.grib2 2026-05-08 21:02 360K
20260508T18Z_MSC_RDPS_WindV_IsbL-0175_RLatLon0.09_PT073H.grib2 2026-05-08 21:02 409K
20260508T18Z_MSC_RDPS_WindV_IsbL-0200_RLatLon0.09_PT073H.grib2 2026-05-08 21:02 328K
20260508T18Z_MSC_RDPS_WindV_IsbL-0225_RLatLon0.09_PT073H.grib2 2026-05-08 21:02 334K
20260508T18Z_MSC_RDPS_WindV_IsbL-0250_RLatLon0.09_PT073H.grib2 2026-05-08 21:02 337K
20260508T18Z_MSC_RDPS_WindV_IsbL-0275_RLatLon0.09_PT073H.grib2 2026-05-08 21:02 355K
20260508T18Z_MSC_RDPS_WindV_IsbL-0300_RLatLon0.09_PT073H.grib2 2026-05-08 21:02 353K
20260508T18Z_MSC_RDPS_WindV_IsbL-0350_RLatLon0.09_PT073H.grib2 2026-05-08 21:02 360K
20260508T18Z_MSC_RDPS_WindV_IsbL-0400_RLatLon0.09_PT073H.grib2 2026-05-08 21:02 362K
20260508T18Z_MSC_RDPS_WindV_IsbL-0450_RLatLon0.09_PT073H.grib2 2026-05-08 21:02 365K
20260508T18Z_MSC_RDPS_WindV_IsbL-0500_RLatLon0.09_PT073H.grib2 2026-05-08 21:02 471K
20260508T18Z_MSC_RDPS_WindV_IsbL-0550_RLatLon0.09_PT073H.grib2 2026-05-08 21:02 473K
20260508T18Z_MSC_RDPS_WindV_IsbL-0600_RLatLon0.09_PT073H.grib2 2026-05-08 21:02 481K
20260508T18Z_MSC_RDPS_WindV_IsbL-0650_RLatLon0.09_PT073H.grib2 2026-05-08 21:02 500K
20260508T18Z_MSC_RDPS_WindV_IsbL-0700_RLatLon0.09_PT073H.grib2 2026-05-08 21:02 508K
20260508T18Z_MSC_RDPS_WindV_IsbL-0750_RLatLon0.09_PT073H.grib2 2026-05-08 21:02 536K
20260508T18Z_MSC_RDPS_WindV_IsbL-0800_RLatLon0.09_PT073H.grib2 2026-05-08 21:02 580K
20260508T18Z_MSC_RDPS_WindV_IsbL-0850_RLatLon0.09_PT073H.grib2 2026-05-08 21:02 625K
20260508T18Z_MSC_RDPS_WindV_IsbL-0875_RLatLon0.09_PT073H.grib2 2026-05-08 21:02 641K
20260508T18Z_MSC_RDPS_WindV_IsbL-0900_RLatLon0.09_PT073H.grib2 2026-05-08 21:02 652K
20260508T18Z_MSC_RDPS_WindV_IsbL-0925_RLatLon0.09_PT073H.grib2 2026-05-08 21:02 662K
20260508T18Z_MSC_RDPS_WindV_IsbL-0950_RLatLon0.09_PT073H.grib2 2026-05-08 21:02 661K
20260508T18Z_MSC_RDPS_WindV_IsbL-0970_RLatLon0.09_PT073H.grib2 2026-05-08 21:02 800K
20260508T18Z_MSC_RDPS_WindV_IsbL-0985_RLatLon0.09_PT073H.grib2 2026-05-08 21:02 797K
20260508T18Z_MSC_RDPS_WindV_IsbL-1000_RLatLon0.09_PT073H.grib2 2026-05-08 21:02 793K
20260508T18Z_MSC_RDPS_WindV_IsbL-1015_RLatLon0.09_PT073H.grib2 2026-05-08 21:02 835K